Simultaneous Nadir Overpasses (SNOs) Predictions

Prediction of SNOs between METOP-B and NOAA-19 Satellite Orbit:

Table of predicted SNOs for the next 14.0 days since TLE Epoch: 12/28/2018
Index Date (METOP-B) Time (METOP-B) Lat,Lon (METOP-B) SZA (METOP-B ) Date (NOAA-19) Time (NOAA-19) Lat,Lon (NOAA-19) SZA (NOAA-19 ) Distance(km) Time Diff (sec)
1 12/30/2018 21:28:04 78.90,-128.79 102.21 12/30/2018 21:27:02 78.90,-128.85 102.19 1.30 62
2 12/30/2018 22:18:46 -78.88, 38.39 77.83 12/30/2018 22:17:58 -78.90, 38.38 77.81 2.95 48
3 12/30/2018 23:09:26 78.89,-154.22 102.19 12/30/2018 23:09:03 78.90,-154.36 102.19 3.34 23
4 12/31/2018 00:00:08 -78.86, 12.97 77.85 12/30/2018 23:59:58 -78.87, 13.12 77.84 3.47 10
5 12/31/2018 00:50:48 78.87,-179.64 102.16 12/31/2018 00:51:03 78.87,-179.61 102.16 1.01 15
6 12/31/2018 01:41:30 -78.85, -12.46 77.87 12/31/2018 01:41:59 -78.87, -12.38 77.84 2.79 29
7 12/31/2018 02:32:10 78.86, 154.93 102.14 12/31/2018 02:33:04 78.87, 154.88 102.16 1.38 54
8 12/31/2018 03:22:52 -78.84, -37.89 77.89 12/31/2018 03:24:00 -78.87, -37.89 77.85 3.75 68
9 01/10/2019 20:09:35 -78.91, 70.96 79.04 01/10/2019 20:08:25 -78.94, 70.88 79.03 3.41 70
10 01/10/2019 21:00:15 78.91,-121.74 100.95 01/10/2019 20:59:27 78.92,-121.72 100.96 1.30 48
11 01/10/2019 21:50:57 -78.90, 45.54 79.07 01/10/2019 21:50:25 -78.91, 45.63 79.06 2.08 32
12 01/10/2019 22:41:37 78.90,-147.16 100.92 01/10/2019 22:41:28 78.92,-147.23 100.95 3.22 9
13 01/10/2019 23:32:19 -78.89, 20.11 79.10 01/10/2019 23:32:26 -78.91, 20.12 79.07 2.32 7
14 01/11/2019 00:22:59 78.88,-172.59 100.90 01/11/2019 00:23:28 78.89,-172.49 100.91 2.33 29
15 01/11/2019 01:13:41 -78.87, -5.32 79.12 01/11/2019 01:14:26 -78.88, -5.13 79.11 3.87 45
16 01/11/2019 02:04:21 78.87, 161.98 100.87 01/11/2019 02:05:29 78.89, 162.00 100.90 2.44 68




NCC Satellite Simultaneous Nadir Overpasses (SNOs) Prediction Service
